Location: Beugnon
(47.6222°N, 3.7850°E)
Time: 18:05:55
(UTC+00:00)

SL-4 R/B - Pass Details

Date: 09 April 2020
Orbit: 428 x 666 km, 51.6° (Epoch: 04 June)

Event Time Altitude Azimuth Distance (km) Brightness Sun altitude
Rises 19:01:25 0° 249° (WSW) 2,401 6.2 -6.5°
Reaches altitude 10° 19:03:32 10° 251° (WSW) 1,526 5.1 -6.8°
Maximum altitude 19:06:56 77° 338° (NNW) 444 1.7 -7.3°
Drops below altitude 10° 19:10:22 10° 65° (ENE) 1,541 3.9 -7.9°
Enters shadow 19:11:41 - 67° (ENE) 2,083 4.6 -8.1°
